STARLINK-37637, 69026

Orbit data source: Space-Track

STARLINK-37637, 69026 is a payload satellite owned by SpaceX/Seattle (US) in SSO that was launched on Wed, 06 May 2026 UTC via an FALCON 9 launch vehicle from the Air Force Western Test Range (AFWTR). Payload-class satellites include a variety of spacecraft equipped with specific instruments for various scientific and technological missions. These include communications satellites like Starlink; space stations such as the ISS; scientific satellites like the Hubble; Earth observation satellites from companies like Planet Labs, Umbra, and HawkEye 360; GPS; miniature CubeSats for education and research; and military/defense satellites.

Loading next visibility...
Identifier
69026, 2026-101B
Orbit
SSO
Country
Flag of USUS
Related business
Manufacturer
SpaceX/Seattle
Mission
Operational Commercial Communications
Bus & Motor
STARLINK V2MO, Unknown motor
Mass
575 kg wet, ~530 kg dry
Launch date (UTC)
2026-05-06 (3 months ago)
Launch vehicle
FALCON 9
Launch site
Air Force Western Test Range (AFWTR)
Object type
Payload
Rocket body
Debris
Shape & HBR
Box + 2 Pan, 17.7 m
Radar Cross Section
36.964 m², Large (>1 m²)

Expand to show TLE details & history
Last TLE update: 16 hours ago

TLE from 16 hours ago
0 STARLINK-37637
1 69026U 26101B   26206.55564036  .00022616  00000-0  70037-3 0  9990
2 69026  97.2869  60.8692 0001764  97.7067 262.4376 15.33462778 12459
Epoch: 2026-07-25T13:20Z
TLE epoch observation values (Epoch: 2026-07-25T13:20:07.327Z)
Latitude
-0.00001°
Longitude
-82.42756°
Altitude
468.761 km
Speed
7.632 km/s
True Right ascension
04h 03m 28s
True Declination
0° 00' 00"
Sunlit
Object was in daylight at epoch
Visualization orbit readout
Latitude
Unknown
Longitude
Unknown
Altitude
Unknown
Speed
Unknown
Apparent Right ascension
Unknown
Apparent Declination
Unknown
Sunlit
N/A
Visualization observer readout
Local Sidereal Time
19:00:28
Azimuth
Unknown
Elevation
Unknown
Doppler factor
Unknown
Orbital elements
Apogee altitude
463.64 km
Perigee altitude
461.226 km
Semi-major axis
6,840.57 km
Eccentricity
0.00018
Inclination
97.2869°
RAAN
60.8692°
Arg. of periapsis
97.7067°
True anomaly
262.41756°
Mean anomaly
262.4376°
Eccentric anomaly
262.42758°
Mean motion
3.83623 °/min
Orbital period
93.84 mins
BSTAR
0.00070037
Loading maneuver chart data...
Computing Atmospheric mass density...
Loading historical data...
Loading historical data...
Loading historical data...
Loading historical data...
Loading historical data...
Loading historical data...
Loading historical data...

Documentation

Showing up to 5 results
|